AAL2855 KLAS-KJFK

Flight info

Callsign AAL2855
Flight time N/A
Altitude 35000
Route GIDGT3 TUKRR KD45Q HBU MCI BAYLI/N0444F370 J80 SPI WWODD RINTE KLYNE Q29 JHW Q476 WLKES PUCKY1
Aircraft B738/M-SDE2E3FGHIRWXY/LB1

Departure

Time N/A
Airport Harry Reid International Airport (KLAS)

Arrival

Time 2026-05-04 21:29
Airport John F. Kennedy International Airport (KJFK)
Time Latitude Longitude Altitude Speed Heading
2026-05-04 21:11 41.00909 -74.90781 15966 ft 347 kts 116°
2026-05-04 21:11 40.99922 -74.87870 15625 ft 345 kts 113°
2026-05-04 21:11 40.99254 -74.84813 15303 ft 345 kts 100°
2026-05-04 21:11 40.98875 -74.81688 14996 ft 342 kts 98°
2026-05-04 21:12 40.98540 -74.78614 14676 ft 341 kts 98°
2026-05-04 21:12 40.98205 -74.75506 14347 ft 340 kts 98°
2026-05-04 21:12 40.97864 -74.72403 14018 ft 339 kts 98°
2026-05-04 21:12 40.97517 -74.69326 13671 ft 338 kts 98°
2026-05-04 21:13 40.97164 -74.66243 13295 ft 337 kts 99°
2026-05-04 21:13 40.96813 -74.63220 12952 ft 336 kts 99°
2026-05-04 21:13 40.96456 -74.60175 12621 ft 334 kts 99°
2026-05-04 21:13 40.96098 -74.57137 12288 ft 332 kts 99°
2026-05-04 21:14 40.95861 -74.55141 12064 ft 330 kts 99°
2026-05-04 21:14 40.95508 -74.52142 11740 ft 328 kts 99°
2026-05-04 21:14 40.95040 -74.48211 11315 ft 325 kts 99°
2026-05-04 21:14 40.94802 -74.46218 11083 ft 324 kts 99°
2026-05-04 21:15 40.94450 -74.43283 10780 ft 322 kts 99°
2026-05-04 21:15 40.94100 -74.40361 10454 ft 321 kts 99°
2026-05-04 21:15 40.93756 -74.37495 10224 ft 315 kts 99°
2026-05-04 21:15 40.93416 -74.34672 10084 ft 307 kts 99°
2026-05-04 21:16 40.93085 -74.31919 9945 ft 300 kts 99°
2026-05-04 21:16 40.92756 -74.29192 9647 ft 299 kts 100°
2026-05-04 21:16 40.92428 -74.26491 9356 ft 297 kts 100°
2026-05-04 21:16 40.92101 -74.23798 9068 ft 295 kts 100°
2026-05-04 21:17 40.91780 -74.21149 8773 ft 294 kts 100°
2026-05-04 21:17 40.91456 -74.18486 8498 ft 292 kts 100°
2026-05-04 21:17 40.91133 -74.15835 8212 ft 291 kts 100°
2026-05-04 21:17 40.90810 -74.13222 7934 ft 290 kts 102°
2026-05-04 21:18 40.90105 -74.10772 7686 ft 282 kts 125°
2026-05-04 21:18 40.89048 -74.08609 7448 ft 280 kts 127°
2026-05-04 21:18 40.87981 -74.06468 7171 ft 279 kts 127°
2026-05-04 21:18 40.86914 -74.04323 6897 ft 279 kts 127°
2026-05-04 21:19 40.85854 -74.02178 6622 ft 279 kts 126°
2026-05-04 21:19 40.84798 -74.00034 6347 ft 278 kts 126°
2026-05-04 21:19 40.83740 -73.97880 6056 ft 279 kts 126°
2026-05-04 21:19 40.82681 -73.95721 5737 ft 279 kts 126°
2026-05-04 21:20 40.81643 -73.93601 5471 ft 278 kts 126°
2026-05-04 21:20 40.80591 -73.91455 5184 ft 278 kts 126°
2026-05-04 21:20 40.79547 -73.89327 4993 ft 274 kts 126°
2026-05-04 21:20 40.78622 -73.87150 4935 ft 272 kts 110°
2026-05-04 21:21 40.78481 -73.84726 4984 ft 262 kts 79°
2026-05-04 21:21 40.79202 -73.82592 4945 ft 251 kts 49°
2026-05-04 21:21 40.80348 -73.80897 4818 ft 245 kts 44°
2026-05-04 21:21 40.81515 -73.79292 4613 ft 239 kts 44°
2026-05-04 21:22 40.82638 -73.77758 4403 ft 232 kts 43°
2026-05-04 21:22 40.83513 -73.75994 4040 ft 232 kts 69°
2026-05-04 21:22 40.84058 -73.74004 3819 ft 225 kts 73°
2026-05-04 21:22 40.84329 -73.72026 3711 ft 213 kts 83°
2026-05-04 21:23 40.84351 -73.70103 3520 ft 207 kts 100°
2026-05-04 21:23 40.83954 -73.68325 3346 ft 198 kts 121°
2026-05-04 21:23 40.83359 -73.66747 3263 ft 185 kts 120°
2026-05-04 21:23 40.82814 -73.65257 3083 ft 183 kts 120°
2026-05-04 21:24 40.82071 -73.63974 2947 ft 169 kts 155°
2026-05-04 21:24 40.81105 -73.63183 2999 ft 161 kts 154°
2026-05-04 21:24 40.80078 -73.62784 3004 ft 148 kts 189°
2026-05-04 21:24 40.79170 -73.63323 3048 ft 146 kts 220°
2026-05-04 21:25 40.78306 -73.64091 2989 ft 147 kts 217°
2026-05-04 21:25 40.77462 -73.64829 2994 ft 142 kts 217°
2026-05-04 21:25 40.76617 -73.65636 3037 ft 161 kts 221°
2026-05-04 21:25 40.75755 -73.66517 2938 ft 155 kts 220°
2026-05-04 21:26 40.74876 -73.67325 2758 ft 155 kts 216°
2026-05-04 21:26 40.73949 -73.68094 2490 ft 158 kts 214°
2026-05-04 21:26 40.72990 -73.68848 2179 ft 162 kts 212°
2026-05-04 21:26 40.72016 -73.69585 1790 ft 157 kts 212°
2026-05-04 21:27 40.71106 -73.70321 1560 ft 151 kts 212°
2026-05-04 21:27 40.70233 -73.71006 1335 ft 141 kts 211°
2026-05-04 21:27 40.69438 -73.71628 1158 ft 130 kts 211°
2026-05-04 21:27 40.68657 -73.72245 980 ft 132 kts 211°
2026-05-04 21:28 40.67873 -73.72862 798 ft 129 kts 209°
2026-05-04 21:28 40.67112 -73.73457 620 ft 126 kts 208°
2026-05-04 21:28 40.66381 -73.74039 446 ft 123 kts 205°
2026-05-04 21:28 40.65638 -73.74611 303 ft 126 kts 205°
2026-05-04 21:29 40.64857 -73.75222 164 ft 133 kts 206°
2026-05-04 21:29 40.64093 -73.75827 23 ft 115 kts 204°
2026-05-04 21:29 40.63488 -73.76294 19 ft 83 kts 210°
2026-05-04 21:29 40.63247 -73.76482 18 ft 30 kts 211°
2026-05-04 21:30 40.63079 -73.76629 16 ft 24 kts 220°
2026-05-04 21:30 40.62987 -73.76765 18 ft 19 kts 236°
2026-05-04 21:30 40.62927 -73.76906 15 ft 13 kts 258°
2026-05-04 21:30 40.62956 -73.77014 15 ft 13 kts 322°
2026-05-04 21:31 40.63116 -73.76967 15 ft 12 kts 17°
2026-05-04 21:31 40.63199 -73.76950 15 ft 12 kts
2026-05-04 21:31 40.63289 -73.76947 15 ft 13 kts
2026-05-04 21:32 40.63379 -73.76940 15 ft 14 kts
2026-05-04 21:32 40.63486 -73.76924 15 ft 17 kts
2026-05-04 21:32 40.63601 -73.76919 15 ft 17 kts
2026-05-04 21:32 40.63733 -73.76917 15 ft 21 kts
2026-05-04 21:33 40.63877 -73.76914 15 ft 20 kts
2026-05-04 21:33 40.64017 -73.76911 15 ft 20 kts
2026-05-04 21:33 40.64153 -73.76892 16 ft 19 kts
2026-05-04 21:33 40.64283 -73.76885 16 ft 19 kts 359°
2026-05-04 21:34 40.64398 -73.76945 15 ft 18 kts 319°
2026-05-04 21:34 40.64516 -73.76987 15 ft 18 kts 360°
2026-05-04 21:34 40.64637 -73.76988 15 ft 17 kts 353°
2026-05-04 21:34 40.64742 -73.77050 15 ft 16 kts 320°
2026-05-04 21:35 40.64808 -73.77168 16 ft 16 kts 300°
2026-05-04 21:35 40.64862 -73.77289 16 ft 15 kts 301°
2026-05-04 21:35 40.64916 -73.77406 15 ft 15 kts 301°
2026-05-04 21:35 40.64967 -73.77518 15 ft 14 kts 301°
2026-05-04 21:36 40.65015 -73.77626 15 ft 13 kts 301°
2026-05-04 21:36 40.65061 -73.77727 15 ft 13 kts 300°
2026-05-04 21:36 40.65109 -73.77832 15 ft 15 kts 301°
2026-05-04 21:36 40.65166 -73.77959 15 ft 17 kts 301°
2026-05-04 21:37 40.65234 -73.78109 16 ft 20 kts 301°
2026-05-04 21:37 40.65305 -73.78265 16 ft 20 kts 301°
2026-05-04 21:37 40.65363 -73.78397 16 ft 11 kts 286°
2026-05-04 21:37 40.65344 -73.78493 15 ft 11 kts 246°
2026-05-04 21:38 40.65309 -73.78584 15 ft 12 kts 241°
2026-05-04 21:38 40.65267 -73.78685 18 ft 13 kts 240°
2026-05-04 21:38 40.65221 -73.78817 15 ft 16 kts 257°
2026-05-04 21:38 40.65150 -73.78904 15 ft 15 kts 188°
2026-05-04 21:39 40.65050 -73.78927 15 ft 15 kts 207°
2026-05-04 21:39 40.65002 -73.79015 15 ft 12 kts 240°
2026-05-04 21:39 40.64957 -73.79067 15 ft 7 kts 178°
2026-05-04 21:39 40.64910 -73.79054 15 ft 7 kts 163°
2026-05-04 21:40 40.64899 -73.79050 15 ft 0 kts 167°